K8MUD Weather Reports


Display with metric or nautical units.
time (UTC)temp
F
wind
direction
speed
MPH
gust
MPH
rain 1hr
in
rain 24hr
in
rain mn
in
humidity
%
barometer
mb
20260510004531 66 303 4.0 8.0 0.00 0.17 0.17 46 1003.8
20260510004525 66 303 4.0 8.0 0.00 0.17 0.17 46 1003.8
20260510004031 66 312 4.0 9.0 0.00 0.17 0.17 45 1003.7
20260510004004 66 312 4.0 9.0 0.00 0.17 0.17 45 1003.7
20260510003501 67 303 4.0 9.0 0.00 0.17 0.17 44 1003.6
20260510003002 67 282 4.0 11.0 0.00 0.17 0.17 44 1003.4
20260510003000 67 280 4.0 11.0 0.00 0.17 0.17 44 1003.4
20260510002501 67 287 4.0 11.0 0.00 0.17 0.17 44 1003.4
20260510002001 67 287 4.0 8.0 0.00 0.17 0.17 44 1003.3
20260510001501 68 282 3.0 8.0 0.00 0.17 0.17 43 1003.2
20260510001002 68 288 4.0 10.0 0.00 0.17 0.17 43 1003.2
20260510001000 68 290 4.0 10.0 0.00 0.17 0.17 43 1003.2
20260510000502 68 286 5.0 10.0 0.00 0.17 0.17 42 1003.3
20260510000500 68 288 5.0 10.0 0.00 0.17 0.17 42 1003.3
20260510000001 68 292 5.0 11.0 0.00 0.17 0.17 42 1003.2
20260509235522 68 289 6.0 12.0 0.00 0.17 0.17 41 1003.1
20260509235500 68 290 7.0 12.0 0.00 0.17 0.17 41 1003.2
20260509235023 68 291 7.0 13.0 0.00 0.17 0.17 41 1003.2
20260509235000 68 294 7.0 16.0 0.00 0.17 0.17 41 1003.1
20260509234501 69 303 8.0 16.0 0.00 0.17 0.17 41 1003.1
20260509234001 69 301 8.0 16.0 0.00 0.17 0.17 39 1003.1
20260509233502 69 280 8.0 18.0 0.00 0.17 0.17 39 1003.1
20260509233500 69 275 8.0 18.0 0.00 0.17 0.17 39 1003.1
20260509233001 70 266 9.0 18.0 0.00 0.17 0.17 39 1003.1
20260509232501 70 269 9.0 17.0 0.00 0.17 0.17 38 1002.9
20260509232001 70 278 11.0 24.0 0.00 0.17 0.17 39 1002.8
20260509231501 70 279 13.0 24.0 0.00 0.17 0.17 39 1002.9
20260509231001 70 280 15.0 35.0 0.00 0.17 0.17 38 1002.9
20260509230502 70 284 15.0 35.0 0.00 0.17 0.17 37 1002.7
20260509230500 70 284 16.0 35.0 0.00 0.17 0.17 37 1002.7
20260509230001 70 283 15.0 26.0 0.00 0.17 0.17 37 1002.7
20260509225959 70 282 14.0 26.0 0.00 0.17 0.17 37 1002.7
20260509225501 70 278 14.0 26.0 0.00 0.17 0.17 37 1002.5
20260509225459 70 278 14.0 25.0 0.00 0.17 0.17 37 1002.5
20260509225002 70 274 14.0 25.0 0.00 0.17 0.17 38 1002.4
20260509224959 70 271 14.0 25.0 0.00 0.17 0.17 38 1002.4
20260509224522 70 266 15.0 28.0 0.00 0.17 0.17 38 1002.1
20260509224459 70 265 15.0 30.0 0.00 0.17 0.17 39 1002.1
20260509224002 70 265 15.0 30.0 0.00 0.17 0.17 39 1002.0
20260509223959 70 266 13.0 30.0 0.00 0.17 0.17 38 1002.0
20260509223501 70 271 13.0 30.0 0.00 0.17 0.17 39 1002.0
20260509223459 70 271 13.0 25.0 0.00 0.17 0.17 39 1001.9
20260509223001 70 267 12.0 25.0 0.00 0.17 0.17 39 1001.9
20260509222959 70 266 13.0 25.0 0.00 0.17 0.17 39 1001.9
20260509222502 70 260 11.0 24.0 0.00 0.17 0.17 38 1001.9
20260509222459 70 261 11.0 24.0 0.00 0.17 0.17 39 1001.7
20260509222001 70 267 11.0 24.0 0.00 0.17 0.17 39 1001.7
20260509221959 71 268 12.0 23.0 0.00 0.17 0.17 39 1001.6
20260509221501 71 273 14.0 26.0 0.00 0.17 0.17 38 1001.6
20260509221459 71 274 15.0 26.0 0.00 0.17 0.17 38 1001.6
20260509221001 71 274 14.0 26.0 0.00 0.17 0.17 38 1001.6
20260509220959 71 273 14.0 26.0 0.00 0.17 0.17 38 1001.8
20260509220501 71 273 12.0 26.0 0.00 0.17 0.17 37 1001.4
20260509220459 71 272 12.0 23.0 0.00 0.17 0.17 38 1001.5
20260509220001 71 272 14.0 29.0 0.00 0.17 0.17 38 1001.5
20260509215959 71 271 13.0 29.0 0.00 0.17 0.17 38 1001.5
20260509215501 71 269 12.0 29.0 0.00 0.17 0.17 37 1001.5
20260509215458 71 268 11.0 29.0 0.00 0.17 0.17 38 1001.3
20260509215002 71 269 11.0 22.0 0.00 0.17 0.17 40 1001.3
20260509214958 71 272 11.0 22.0 0.00 0.17 0.17 40 1001.3
20260509214501 71 266 10.0 22.0 0.00 0.17 0.17 39 1001.1
20260509214458 71 262 10.0 22.0 0.00 0.17 0.17 39 1001.1
20260509214001 71 250 10.0 20.0 0.00 0.17 0.17 40 1001.2
20260509213958 71 247 10.0 20.0 0.00 0.17 0.17 41 1001.2
20260509213502 71 258 11.0 21.0 0.00 0.17 0.17 40 1001.0
20260509213458 71 260 11.0 21.0 0.00 0.17 0.17 40 1001.0
20260509213002 71 263 11.0 21.0 0.00 0.17 0.17 41 1001.1
20260509212958 70 264 10.0 21.0 0.00 0.17 0.17 41 1001.1
20260509212501 70 255 9.0 20.0 0.00 0.17 0.17 42 1001.1
20260509212458 70 254 9.0 20.0 0.00 0.17 0.17 43 1001.1
20260509212022 70 255 9.0 19.0 0.00 0.17 0.17 43 1001.2
20260509211958 70 258 10.0 19.0 0.00 0.17 0.17 44 1001.2
20260509211502 70 263 10.0 20.0 0.00 0.17 0.17 44 1001.1
20260509211458 70 266 11.0 20.0 0.00 0.17 0.17 46 1001.1
20260509211001 69 270 10.0 21.0 0.00 0.17 0.17 47 1001.3
20260509210958 69 271 10.0 21.0 0.00 0.17 0.17 46 1001.2
20260509210501 69 275 9.0 21.0 0.00 0.17 0.17 54 1001.2
20260509210458 69 275 8.0 21.0 0.00 0.17 0.17 54 1001.3
20260509210023 69 285 7.0 17.0 0.00 0.17 0.17 58 1001.3
20260509205958 68 280 6.0 17.0 0.00 0.17 0.17 60 1001.3
20260509205501 68 271 7.0 14.0 0.00 0.17 0.17 61 1001.2
20260509205458 68 268 8.0 14.0 0.00 0.17 0.17 61 1001.3
20260509205002 67 269 8.0 14.0 0.00 0.17 0.17 63 1001.4
20260509204957 67 274 7.0 14.0 0.00 0.17 0.17 63 1001.5
20260509204502 66 289 7.0 14.0 0.00 0.17 0.17 65 1001.6
20260509204457 66 292 7.0 14.0 0.00 0.17 0.17 65 1001.6
20260509204001 65 294 7.0 14.0 0.00 0.17 0.17 69 1001.4
20260509203957 65 293 7.0 14.0 0.00 0.17 0.17 68 1001.5
20260509203502 64 279 5.0 12.0 0.00 0.17 0.17 70 1001.6
20260509203457 64 273 4.0 11.0 0.01 0.17 0.17 73 1001.7
20260509203002 63 241 3.0 6.0 0.06 0.17 0.17 77 1001.8
20260509202957 63 235 3.0 5.0 0.08 0.17 0.17 77 1001.8
20260509202502 63 237 3.0 5.0 0.12 0.17 0.17 80 1001.9
20260509202457 63 238 3.0 5.0 0.12 0.17 0.17 80 1002.0
20260509202002 62 235 3.0 5.0 0.12 0.17 0.17 82 1001.9
20260509201957 62 235 2.0 5.0 0.12 0.17 0.17 82 1001.9
20260509201502 61 232 2.0 5.0 0.13 0.17 0.17 83 1002.1
20260509201457 61 232 2.0 5.0 0.13 0.17 0.17 83 1002.1
20260509201001 61 232 2.0 5.0 0.13 0.17 0.17 85 1002.0
20260509200957 61 232 2.0 5.0 0.13 0.17 0.17 85 1002.0
20260509200501 60 231 1.0 4.0 0.14 0.17 0.17 86 1002.0
20260509200457 60 230 2.0 4.0 0.14 0.17 0.17 86 1002.0
20260509200023 60 228 1.0 4.0 0.14 0.17 0.17 86 1002.0
20260509195957 60 227 1.0 4.0 0.14 0.17 0.17 86 1002.0
20260509195502 60 228 1.0 4.0 0.17 0.17 0.17 85 1002.2
20260509195457 59 228 2.0 5.0 0.17 0.17 0.17 86 1002.2
20260509195001 59 241 2.0 8.0 0.17 0.17 0.17 86 1002.1
20260509194957 59 245 2.0 8.0 0.17 0.17 0.17 86 1002.2
20260509194502 58 253 4.0 8.0 0.17 0.17 0.17 82 1002.2
20260509194457 58 255 4.0 12.0 0.17 0.17 0.17 81 1002.2
20260509194023 58 251 6.0 12.0 0.17 0.17 0.17 79 1002.1
20260509193957 58 254 7.0 18.0 0.17 0.17 0.17 77 1002.1
20260509193502 59 269 10.0 30.0 0.16 0.16 0.16 74 1002.3
20260509193457 60 273 11.0 30.0 0.16 0.16 0.16 73 1002.1
20260509193002 61 281 12.0 30.0 0.11 0.11 0.11 72 1002.7
20260509192956 61 282 12.0 30.0 0.09 0.09 0.09 71 1002.8
20260509192502 63 283 8.0 19.0 0.05 0.05 0.05 69 1002.6
20260509192456 63 278 8.0 19.0 0.05 0.05 0.05 68 1002.7
20260509192001 64 264 6.0 14.0 0.05 0.05 0.05 70 1002.8
20260509191956 64 257 5.0 14.0 0.05 0.05 0.05 71 1002.7
20260509191501 64 236 6.0 13.0 0.04 0.04 0.04 69 1001.8
20260509191456 64 234 6.0 13.0 0.04 0.04 0.04 69 1001.6
20260509191023 64 239 6.0 15.0 0.04 0.04 0.04 67 1001.5
20260509190956 65 245 6.0 15.0 0.04 0.04 0.04 67 1001.5
20260509190502 66 253 7.0 17.0 0.03 0.03 0.03 67 1001.4
20260509190456 66 251 7.0 17.0 0.03 0.03 0.03 67 1001.5
20260509190001 68 250 8.0 17.0 0.03 0.03 0.03 62 1001.4
20260509185956 68 247 7.0 17.0 0.03 0.03 0.03 62 1001.4
20260509185501 70 242 6.0 23.0 0.00 0.00 0.00 58 1001.1
20260509185456 70 244 7.0 23.0 0.00 0.00 0.00 58 1001.1
20260509185002 70 230 6.0 23.0 0.00 0.00 0.00 57 1001.0
20260509184956 70 229 7.0 23.0 0.00 0.00 0.00 53 1001.0
20260509184502 70 221 6.0 22.0 0.00 0.00 0.00 53 1001.1
20260509184456 70 217 6.0 22.0 0.00 0.00 0.00 53 1001.1
20260509184001 70 206 5.0 14.0 0.00 0.00 0.00 54 1001.1
20260509183956 70 203 5.0 16.0 0.00 0.00 0.00 55 1001.1
20260509183502 70 203 6.0 16.0 0.00 0.00 0.00 56 1001.0
20260509183456 70 201 6.0 16.0 0.00 0.00 0.00 56 1001.0
20260509183023 70 203 7.0 16.0 0.00 0.00 0.00 56 1001.0
20260509182956 70 203 7.0 15.0 0.00 0.00 0.00 56 1001.1
20260509182501 70 199 7.0 19.0 0.00 0.00 0.00 56 1001.1
20260509182455 70 200 7.0 19.0 0.00 0.00 0.00 56 1001.2
20260509182002 70 194 7.0 19.0 0.00 0.00 0.00 57 1001.2
20260509181955 69 192 7.0 19.0 0.00 0.00 0.00 57 1001.1
20260509181502 69 190 6.0 16.0 0.00 0.00 0.00 57 1001.1
20260509181455 69 190 5.0 16.0 0.00 0.00 0.00 57 1001.2
20260509181001 69 188 5.0 11.0 0.00 0.00 0.00 62 1001.2
20260509180955 69 189 5.0 11.0 0.00 0.00 0.00 62 1001.3
20260509180502 68 186 5.0 11.0 0.00 0.00 0.00 62 1001.3
20260509180455 68 184 5.0 11.0 0.00 0.00 0.00 63 1001.4
20260509180002 68 181 5.0 11.0 0.00 0.00 0.00 62 1001.4
20260509175955 68 179 6.0 16.0 0.00 0.00 0.00 62 1001.5
20260509175501 68 179 5.0 16.0 0.00 0.00 0.00 62 1001.4
20260509175455 68 183 6.0 16.0 0.00 0.00 0.00 63 1001.4
20260509175001 68 188 6.0 16.0 0.00 0.00 0.00 62 1001.5
20260509174955 68 192 6.0 15.0 0.00 0.00 0.00 63 1001.5
20260509174502 68 189 6.0 14.0 0.00 0.00 0.00 62 1001.4
20260509174455 68 189 6.0 14.0 0.00 0.00 0.00 62 1001.5
20260509174002 68 183 6.0 12.0 0.00 0.00 0.00 62 1001.5
20260509173955 68 179 6.0 12.0 0.00 0.00 0.00 62 1001.5
20260509173501 68 186 6.0 15.0 0.00 0.00 0.00 63 1001.6
20260509173455 68 183 6.0 15.0 0.00 0.00 0.00 63 1001.6
20260509173002 68 194 6.0 15.0 0.00 0.00 0.00 64 1001.6
20260509172955 68 195 6.0 15.0 0.00 0.00 0.00 64 1001.6
20260509172502 68 189 5.0 13.0 0.00 0.00 0.00 63 1001.6
20260509172455 68 190 5.0 13.0 0.00 0.00 0.00 64 1001.6
20260509172023 68 183 5.0 13.0 0.00 0.00 0.00 63 1001.7
20260509171955 68 185 6.0 13.0 0.00 0.00 0.00 62 1001.7
20260509171502 68 188 6.0 13.0 0.00 0.00 0.00 63 1001.8
20260509171455 68 188 6.0 15.0 0.00 0.00 0.00 64 1001.8
20260509171002 67 184 6.0 15.0 0.00 0.00 0.00 63 1001.7
20260509170954 67 185 6.0 15.0 0.00 0.00 0.00 62 1001.8
20260509170502 68 191 6.0 15.0 0.00 0.00 0.00 62 1001.8
20260509170454 68 191 5.0 14.0 0.00 0.00 0.00 64 1001.8
20260509170022 67 195 6.0 14.0 0.00 0.00 0.00 63 1001.8
20260509165954 67 193 6.0 14.0 0.00 0.00 0.00 63 1001.8
20260509165524 68 186 5.0 11.0 0.00 0.00 0.00 61 1001.8
20260509165454 68 183 5.0 11.0 0.00 0.00 0.00 61 1001.8
20260509165002 68 188 5.0 11.0 0.00 0.00 0.00 61 1001.9
20260509164954 68 186 5.0 11.0 0.00 0.00 0.00 61 1001.9
20260509164501 68 189 4.0 11.0 0.00 0.00 0.00 61 1001.9
20260509164454 68 193 4.0 11.0 0.00 0.00 0.00 61 1001.9
20260509164002 68 197 5.0 12.0 0.00 0.00 0.00 60 1001.8
20260509163954 67 198 5.0 12.0 0.00 0.00 0.00 60 1002.0
20260509163502 67 193 6.0 12.0 0.00 0.00 0.00 61 1001.9
20260509163454 67 191 6.0 12.0 0.00 0.00 0.00 60 1002.0
20260509163001 67 190 6.0 13.0 0.00 0.00 0.00 61 1001.9
20260509162954 68 193 6.0 13.0 0.00 0.00 0.00 62 1001.9
20260509162502 68 200 7.0 13.0 0.00 0.00 0.00 61 1002.0
20260509162454 68 201 7.0 13.0 0.00 0.00 0.00 60 1002.0
20260509162023 68 201 6.0 13.0 0.00 0.00 0.00 60 1002.1
20260509161954 68 196 5.0 13.0 0.00 0.00 0.00 60 1002.0
20260509161502 68 191 5.0 9.0 0.00 0.00 0.00 64 1002.1
20260509161454 68 190 5.0 11.0 0.00 0.00 0.00 64 1002.1
20260509161002 67 189 4.0 11.0 0.00 0.00 0.00 64 1002.1
20260509160954 67 191 4.0 11.0 0.00 0.00 0.00 64 1002.1
20260509160502 67 196 4.0 11.0 0.00 0.00 0.00 64 1002.3
20260509160454 67 194 4.0 10.0 0.00 0.00 0.00 65 1002.3
20260509160023 67 190 4.0 10.0 0.00 0.00 0.00 66 1002.4
20260509155953 66 189 5.0 10.0 0.00 0.00 0.00 67 1002.4
20260509155503 66 186 5.0 10.0 0.00 0.00 0.00 66 1002.4
20260509155453 66 185 5.0 10.0 0.00 0.00 0.00 66 1002.4
20260509155002 66 189 5.0 10.0 0.00 0.00 0.00 65 1002.4
20260509154953 66 190 5.0 10.0 0.00 0.00 0.00 65 1002.4
20260509154502 66 189 5.0 12.0 0.00 0.00 0.00 65 1002.3
20260509154453 66 190 5.0 12.0 0.00 0.00 0.00 65 1002.4
20260509154002 66 196 5.0 14.0 0.00 0.00 0.00 66 1002.5
20260509153953 66 197 5.0 14.0 0.00 0.00 0.00 66 1002.5
20260509153502 66 197 4.0 14.0 0.00 0.00 0.00 65 1002.5
20260509153453 66 197 3.0 14.0 0.00 0.00 0.00 65 1002.6
20260509153002 65 188 3.0 10.0 0.00 0.00 0.00 67 1002.6
20260509152953 65 187 3.0 10.0 0.00 0.00 0.00 68 1002.6
20260509152523 65 188 4.0 10.0 0.00 0.00 0.00 68 1002.7
20260509152453 65 191 4.0 10.0 0.00 0.00 0.00 67 1002.6
20260509152003 64 193 3.0 9.0 0.00 0.00 0.00 69 1002.7
20260509151953 64 195 3.0 9.0 0.00 0.00 0.00 69 1002.8
20260509151502 64 187 3.0 9.0 0.00 0.00 0.00 70 1002.9
20260509151453 64 182 3.0 9.0 0.00 0.00 0.00 69 1002.8
20260509151002 64 174 4.0 9.0 0.00 0.00 0.00 70 1003.0
20260509150953 64 170 4.0 9.0 0.00 0.00 0.00 70 1003.0
20260509150502 63 176 4.0 8.0 0.00 0.00 0.00 70 1003.1
20260509150453 63 179 4.0 8.0 0.00 0.00 0.00 71 1003.1
20260509150023 63 188 3.0 8.0 0.00 0.00 0.00 72 1003.2
20260509145953 63 189 4.0 12.0 0.00 0.00 0.00 71 1003.2
20260509145502 63 191 4.0 12.0 0.00 0.00 0.00 72 1003.3
20260509145453 63 189 4.0 12.0 0.00 0.00 0.00 72 1003.3
20260509145002 62 183 4.0 12.0 0.00 0.00 0.00 72 1003.2
20260509144952 62 181 4.0 7.0 0.00 0.00 0.00 73 1003.2
20260509144502 62 185 4.0 11.0 0.00 0.00 0.00 74 1003.3
20260509144452 62 188 5.0 11.0 0.00 0.00 0.00 74 1003.3
20260509144002 61 200 5.0 11.0 0.00 0.00 0.00 75 1003.3
20260509143952 61 203 5.0 11.0 0.00 0.00 0.00 76 1003.3
20260509143502 61 201 5.0 14.0 0.00 0.00 0.00 76 1003.5
20260509143452 61 200 5.0 14.0 0.00 0.00 0.00 76 1003.5
20260509143002 60 197 5.0 14.0 0.00 0.00 0.00 77 1003.4
20260509142952 60 195 5.0 14.0 0.00 0.00 0.00 76 1003.4
20260509142502 60 192 4.0 13.0 0.00 0.00 0.00 77 1003.4
20260509142452 60 190 4.0 9.0 0.00 0.00 0.00 78 1003.4
20260509142002 60 173 3.0 7.0 0.00 0.00 0.00 79 1003.5
20260509141952 60 175 4.0 8.0 0.00 0.00 0.00 79 1003.5
20260509141503 59 179 3.0 8.0 0.00 0.00 0.00 79 1003.5
20260509141452 59 182 3.0 8.0 0.00 0.00 0.00 79 1003.5
20260509141002 59 192 4.0 10.0 0.00 0.00 0.00 79 1003.7
20260509140952 59 196 4.0 10.0 0.00 0.00 0.00 80 1003.7
20260509140502 59 207 3.0 10.0 0.00 0.00 0.00 79 1003.8
20260509140452 59 209 3.0 10.0 0.00 0.00 0.00 80 1003.8
20260509140003 59 218 2.0 10.0 0.00 0.00 0.00 80 1003.8
20260509135952 59 215 2.0 7.0 0.00 0.00 0.00 80 1003.9
20260509135502 59 196 2.0 7.0 0.00 0.00 0.00 80 1003.9
20260509135452 59 192 2.0 7.0 0.00 0.00 0.00 80 1004.0
20260509135002 58 184 3.0 7.0 0.00 0.00 0.00 80 1003.9
20260509134952 58 179 3.0 6.0 0.00 0.00 0.00 81 1003.9
20260509134502 58 182 3.0 7.0 0.00 0.00 0.00 82 1003.8
20260509134451 58 185 4.0 9.0 0.00 0.00 0.00 81 1003.9
20260509134002 58 191 4.0 9.0 0.00 0.00 0.00 82 1003.9
20260509133951 58 195 4.0 9.0 0.00 0.00 0.00 82 1003.9
20260509133502 58 197 3.0 9.0 0.00 0.00 0.00 82 1004.1
20260509133451 58 197 3.0 9.0 0.00 0.00 0.00 83 1004.1
20260509133002 57 218 2.0 7.0 0.00 0.00 0.00 84 1004.2
20260509132951 57 218 3.0 7.0 0.00 0.00 0.00 84 1004.2
20260509132502 57 222 3.0 7.0 0.00 0.00 0.00 86 1004.3
20260509132451 57 226 3.0 7.0 0.00 0.00 0.00 86 1004.3
20260509132002 56 222 3.0 7.0 0.00 0.00 0.00 86 1004.4
20260509131951 56 223 3.0 7.0 0.00 0.00 0.00 86 1004.4
20260509131503 56 226 3.0 7.0 0.00 0.00 0.00 88 1004.4
20260509131451 56 224 3.0 7.0 0.00 0.00 0.00 88 1004.4
20260509131003 56 221 3.0 7.0 0.00 0.00 0.00 88 1004.5
20260509130951 56 220 3.0 7.0 0.00 0.00 0.00 89 1004.5
20260509130523 55 215 2.0 6.0 0.00 0.00 0.00 90 1004.4
20260509130451 55 215 2.0 6.0 0.00 0.00 0.00 90 1004.4
20260509130002 54 213 2.0 6.0 0.00 0.00 0.00 90 1004.3
20260509125951 54 215 2.0 6.0 0.00 0.00 0.00 91 1004.0
20260509125502 54 214 2.0 6.0 0.00 0.00 0.00 91 1004.1
20260509125451 54 213 2.0 6.0 0.00 0.00 0.00 91 1004.1
20260509125002 54 201 2.0 6.0 0.00 0.00 0.00 92 1004.1
20260509124951 54 197 2.0 6.0 0.00 0.00 0.00 92 1004.1
20260509124503 53 198 2.0 6.0 0.00 0.00 0.00 92 1004.2
20260509124451 53 197 2.0 6.0 0.00 0.00 0.00 92 1004.2
20260509124003 53 202 2.0 6.0 0.00 0.00 0.00 92 1004.2
20260509123951 53 201 2.0 6.0 0.00 0.00 0.00 92 1004.2
20260509123503 53 198 2.0 6.0 0.00 0.00 0.00 92 1004.2
20260509123450 53 196 2.0 6.0 0.00 0.00 0.00 92 1004.1
20260509123002 53 190 2.0 6.0 0.00 0.00 0.00 92 1004.2
20260509122950 53 191 2.0 5.0 0.00 0.00 0.00 92 1004.2
20260509122503 53 186 1.0 5.0 0.00 0.00 0.00 93 1004.2
20260509122450 53 187 1.0 4.0 0.00 0.00 0.00 93 1004.2
20260509122002 52 191 1.0 4.0 0.00 0.00 0.00 93 1004.2
20260509121950 52 193 1.0 4.0 0.00 0.00 0.00 93 1004.3
20260509121503 52 204 1.0 4.0 0.00 0.00 0.00 93 1004.5
20260509121450 52 204 1.0 4.0 0.00 0.00 0.00 93 1004.6
20260509121002 52 205 1.0 4.0 0.00 0.00 0.00 93 1004.6
20260509120950 52 205 1.0 4.0 0.00 0.00 0.00 93 1004.6
20260509120502 52 207 1.0 6.0 0.00 0.00 0.00 93 1004.7
20260509120450 52 208 1.0 6.0 0.00 0.00 0.00 93 1004.7
20260509120024 52 210 1.0 6.0 0.00 0.00 0.00 93 1004.8
20260509115950 52 210 1.0 6.0 0.00 0.00 0.00 93 1004.9
20260509115502 52 215 1.0 4.0 0.00 0.00 0.00 93 1004.9
20260509115450 52 216 1.0 4.0 0.00 0.00 0.00 93 1004.9
20260509115003 51 225 2.0 4.0 0.00 0.00 0.00 93 1004.9
20260509114950 51 227 2.0 4.0 0.00 0.00 0.00 93 1004.9
20260509114503 51 229 2.0 8.0 0.00 0.00 0.00 93 1004.9
20260509114450 51 226 3.0 8.0 0.00 0.00 0.00 93 1004.9
20260509114023 51 218 3.0 8.0 0.00 0.00 0.00 93 1004.9
20260509113950 51 215 2.0 8.0 0.00 0.00 0.00 93 1004.9
20260509113502 51 209 2.0 7.0 0.00 0.00 0.00 93 1004.8
20260509113450 51 213 2.0 7.0 0.00 0.00 0.00 93 1004.8
20260509113002 50 215 1.0 7.0 0.00 0.00 0.00 93 1004.8
20260509112950 50 218 1.0 6.0 0.00 0.00 0.00 93 1004.9
20260509112503 50 218 2.0 6.0 0.00 0.00 0.00 93 1004.9
20260509112449 50 219 1.0 6.0 0.00 0.00 0.00 93 1004.9
20260509112002 50 220 1.0 6.0 0.00 0.00 0.00 93 1004.8
20260509111949 50 221 1.0 3.0 0.00 0.00 0.00 93 1004.9
20260509111502 49 221 1.0 3.0 0.00 0.00 0.00 93 1004.8
20260509111449 49 221 1.0 2.0 0.00 0.00 0.00 93 1004.8
20260509111024 49 221 0.0 2.0 0.00 0.00 0.00 93 1004.9
20260509110949 48 221 0.0 2.0 0.00 0.00 0.00 92 1004.9
20260509110502 48 221 0.0 1.0 0.00 0.00 0.00 92 1004.9
20260509110449 48 221 0.0 1.0 0.00 0.00 0.00 92 1004.8
20260509110002 48 221 0.0 1.0 0.00 0.00 0.00 92 1004.8
20260509105949 48 221 0.0 1.0 0.00 0.00 0.00 92 1004.8
20260509105502 47 221 0.0 1.0 0.00 0.00 0.00 91 1004.8
20260509105449 47 0 0.0 0.0 0.00 0.00 0.00 91 1004.8
20260509105002 47 0 0.0 0.0 0.00 0.00 0.00 90 1004.8
20260509104949 47 0 0.0 0.0 0.00 0.00 0.00 90 1004.8
20260509104524 47 0 0.0 0.0 0.00 0.00 0.00 90 1004.7
20260509104449 47 0 0.0 0.0 0.00 0.00 0.00 90 1004.7
20260509104003 47 0 0.0 0.0 0.00 0.00 0.00 90 1004.7
20260509103949 47 0 0.0 0.0 0.00 0.00 0.00 90 1004.7
20260509103502 47 0 0.0 0.0 0.00 0.00 0.00 90 1004.5
20260509103449 47 0 0.0 0.0 0.00 0.00 0.00 90 1004.5
20260509103023 48 0 0.0 0.0 0.00 0.00 0.00 90 1004.4
20260509102949 48 0 0.0 0.0 0.00 0.00 0.00 90 1004.4
20260509102524 48 0 0.0 0.0 0.00 0.00 0.00 90 1004.4
20260509102449 48 0 0.0 0.0 0.00 0.00 0.00 90 1004.4
20260509102003 48 0 0.0 0.0 0.00 0.00 0.00 89 1004.6
20260509101949 48 0 0.0 0.0 0.00 0.00 0.00 89 1004.5
20260509101502 48 0 0.0 0.0 0.00 0.00 0.00 89 1004.6
20260509101449 48 0 0.0 0.0 0.00 0.00 0.00 89 1004.6
20260509101003 48 0 0.0 0.0 0.00 0.00 0.00 89 1004.5
20260509100948 48 0 0.0 0.0 0.00 0.00 0.00 89 1004.6
20260509100504 48 0 0.0 0.0 0.00 0.00 0.00 89 1004.5
20260509100448 48 0 0.0 0.0 0.00 0.00 0.00 89 1004.6
20260509100002 48 0 0.0 0.0 0.00 0.00 0.00 89 1004.6
20260509095948 48 0 0.0 0.0 0.00 0.00 0.00 89 1004.6
20260509095502 48 0 0.0 0.0 0.00 0.00 0.00 89 1004.7
20260509095448 48 0 0.0 0.0 0.00 0.00 0.00 89 1004.7
20260509095002 49 0 0.0 0.0 0.00 0.00 0.00 89 1004.6
20260509094948 49 221 0.0 1.0 0.00 0.00 0.00 89 1004.7
20260509094524 49 221 0.0 1.0 0.00 0.00 0.00 89 1004.8
20260509094448 49 221 0.0 1.0 0.00 0.00 0.00 89 1004.7
20260509094003 49 221 0.0 1.0 0.00 0.00 0.00 89 1004.7
20260509093948 49 0 0.0 0.0 0.00 0.00 0.00 89 1004.6
20260509093502 49 0 0.0 0.0 0.00 0.00 0.00 89 1004.6
20260509093448 49 0 0.0 0.0 0.00 0.00 0.00 89 1004.6
20260509093003 49 0 0.0 0.0 0.00 0.00 0.00 89 1004.6
20260509092948 49 0 0.0 0.0 0.00 0.00 0.00 89 1004.6
20260509092503 49 0 0.0 0.0 0.00 0.00 0.00 88 1004.7
20260509092448 49 0 0.0 0.0 0.00 0.00 0.00 88 1004.7
20260509092002 50 221 0.0 1.0 0.00 0.00 0.00 88 1004.8
20260509091948 50 221 0.0 1.0 0.00 0.00 0.00 88 1004.8
20260509091503 50 221 0.0 2.0 0.00 0.00 0.00 89 1004.9
20260509091447 50 221 0.0 2.0 0.00 0.00 0.00 89 1004.9
20260509091024 50 221 0.0 2.0 0.00 0.00 0.00 89 1005.0
20260509090947 50 221 0.0 2.0 0.00 0.00 0.00 89 1005.0
20260509090523 50 221 0.0 2.0 0.00 0.00 0.00 88 1004.9
20260509090447 50 221 0.0 2.0 0.00 0.00 0.00 88 1004.9
20260509090003 50 221 0.0 2.0 0.00 0.00 0.00 88 1004.9
20260509085947 50 221 0.0 2.0 0.00 0.00 0.00 88 1004.9
20260509085503 50 221 0.0 2.0 0.00 0.00 0.00 88 1005.1
20260509085447 50 221 0.0 2.0 0.00 0.00 0.00 88 1005.0
20260509085002 50 221 0.0 2.0 0.00 0.00 0.00 88 1005.1
20260509084947 50 221 0.0 2.0 0.00 0.00 0.00 88 1005.0
20260509084502 50 221 0.0 2.0 0.00 0.00 0.00 88 1005.1
20260509084447 50 221 0.0 2.0 0.00 0.00 0.00 88 1005.1
20260509084003 50 221 0.0 1.0 0.00 0.00 0.00 87 1005.1
20260509083947 50 221 0.0 2.0 0.00 0.00 0.00 87 1005.2
20260509083524 50 221 0.0 2.0 0.00 0.00 0.00 87 1005.2
20260509083447 50 221 0.0 2.0 0.00 0.00 0.00 87 1005.1
20260509083002 50 221 0.0 2.0 0.00 0.00 0.00 87 1005.1
20260509082947 50 221 0.0 2.0 0.00 0.00 0.00 87 1005.0
20260509082503 50 221 0.0 2.0 0.00 0.00 0.00 87 1005.1
20260509082447 50 221 0.0 1.0 0.00 0.00 0.00 87 1005.1
20260509082003 50 221 0.0 1.0 0.00 0.00 0.00 86 1005.0
20260509081947 50 221 0.0 1.0 0.00 0.00 0.00 86 1005.0
20260509081502 50 221 0.0 1.0 0.00 0.00 0.00 86 1005.1
20260509081447 50 0 0.0 0.0 0.00 0.00 0.00 87 1005.1
20260509081003 50 0 0.0 0.0 0.00 0.00 0.00 87 1005.1
20260509080946 50 221 0.0 1.0 0.00 0.00 0.00 87 1005.1
20260509080523 50 221 0.0 3.0 0.00 0.00 0.00 87 1005.0
20260509080446 50 221 0.0 3.0 0.00 0.00 0.00 87 1005.1
20260509080003 51 221 1.0 3.0 0.00 0.00 0.00 87 1005.1
20260509075946 51 221 1.0 3.0 0.00 0.00 0.00 87 1005.1
20260509075503 51 221 1.0 3.0 0.00 0.00 0.00 87 1005.0
20260509075446 51 221 1.0 3.0 0.00 0.00 0.00 87 1005.0
20260509075002 51 221 1.0 4.0 0.00 0.00 0.00 87 1004.9
20260509074946 51 221 1.0 5.0 0.00 0.00 0.00 87 1004.9
20260509074503 51 216 1.0 5.0 0.00 0.00 0.00 87 1004.9
20260509074446 51 216 1.0 5.0 0.00 0.00 0.00 87 1004.9
20260509074003 51 210 1.0 5.0 0.00 0.00 0.00 88 1005.0
20260509073946 51 206 1.0 4.0 0.00 0.00 0.00 88 1005.0
20260509073523 51 205 1.0 3.0 0.00 0.00 0.00 88 1005.1
20260509073446 51 205 1.0 3.0 0.00 0.00 0.00 88 1005.1
20260509073003 51 205 1.0 3.0 0.00 0.00 0.00 87 1005.0
20260509072946 51 205 1.0 2.0 0.00 0.00 0.00 87 1005.0
20260509072503 51 205 1.0 3.0 0.00 0.00 0.00 87 1005.1
20260509072446 51 205 1.0 4.0 0.00 0.00 0.00 87 1005.1
20260509072003 51 206 0.0 4.0 0.00 0.00 0.00 87 1005.0
20260509071946 51 206 1.0 4.0 0.00 0.00 0.00 87 1004.9
20260509071504 51 206 1.0 4.0 0.00 0.00 0.00 87 1004.9
20260509071446 51 206 1.0 3.0 0.00 0.00 0.00 87 1005.1
20260509071003 51 206 1.0 3.0 0.00 0.00 0.00 87 1005.0
20260509070946 51 206 1.0 3.0 0.00 0.00 0.00 87 1005.0
20260509070503 51 206 1.0 4.0 0.00 0.00 0.00 87 1005.1
20260509070445 51 206 1.0 4.0 0.00 0.00 0.00 87 1005.1
20260509070004 51 205 1.0 4.0 0.00 0.00 0.00 87 1005.2
20260509065945 51 205 1.0 4.0 0.00 0.00 0.00 87 1005.3
20260509065503 51 205 0.0 2.0 0.00 0.00 0.00 87 1005.2
20260509065445 51 205 0.0 2.0 0.00 0.00 0.00 87 1005.2
20260509065002 51 205 0.0 3.0 0.00 0.00 0.00 87 1005.3
20260509064945 51 205 1.0 3.0 0.00 0.00 0.00 87 1005.2
20260509064502 51 205 1.0 3.0 0.00 0.00 0.00 87 1005.3
20260509064445 51 205 1.0 3.0 0.00 0.00 0.00 86 1005.3
20260509064024 52 205 1.0 3.0 0.00 0.00 0.00 86 1005.3
20260509063945 52 205 1.0 3.0 0.00 0.00 0.00 86 1005.4
20260509063503 52 205 1.0 3.0 0.00 0.00 0.00 86 1005.5
20260509063445 52 205 1.0 3.0 0.00 0.00 0.00 86 1005.5
20260509063002 52 205 1.0 3.0 0.00 0.00 0.00 86 1005.5
20260509062945 52 205 1.0 3.0 0.00 0.00 0.00 86 1005.5
20260509062503 52 205 1.0 3.0 0.00 0.00 0.00 86 1005.5
20260509062445 52 205 1.0 3.0 0.00 0.00 0.00 86 1005.5
20260509062024 52 205 1.0 3.0 0.00 0.00 0.00 86 1005.6
20260509061945 52 205 1.0 3.0 0.00 0.00 0.00 86 1005.6
20260509061503 52 205 1.0 2.0 0.00 0.00 0.00 85 1005.7
20260509061445 52 205 0.0 2.0 0.00 0.00 0.00 85 1005.7
20260509061002 52 205 0.0 2.0 0.00 0.00 0.00 85 1005.7
20260509060945 52 205 0.0 2.0 0.00 0.00 0.00 85 1005.7
20260509060503 52 205 0.0 2.0 0.00 0.00 0.00 85 1005.8
20260509060445 52 205 1.0 2.0 0.00 0.00 0.00 85 1005.8
20260509060003 52 205 1.0 2.0 0.00 0.00 0.00 85 1005.9
20260509055945 52 205 1.0 3.0 0.00 0.00 0.00 84 1005.9
20260509055502 52 205 1.0 3.0 0.00 0.00 0.00 85 1005.9
20260509055444 52 205 1.0 4.0 0.00 0.00 0.00 85 1006.0
20260509055003 53 204 1.0 4.0 0.00 0.00 0.00 84 1006.0
20260509054944 53 203 1.0 4.0 0.00 0.00 0.00 84 1005.9
20260509054524 53 202 1.0 4.0 0.00 0.00 0.00 84 1006.0
20260509054444 53 202 1.0 3.0 0.00 0.00 0.00 84 1006.0
20260509054024 53 202 1.0 2.0 0.00 0.00 0.00 84 1006.1
20260509053945 53 202 1.0 2.0 0.00 0.00 0.00 84 1006.0
20260509053503 53 202 1.0 3.0 0.00 0.00 0.00 84 1006.1
20260509053444 53 202 1.0 3.0 0.00 0.00 0.00 84 1006.1
20260509053003 53 202 1.0 3.0 0.00 0.00 0.00 84 1006.1
20260509052944 53 202 1.0 3.0 0.00 0.00 0.00 84 1006.1
20260509052503 53 202 1.0 5.0 0.00 0.00 0.00 83 1006.1
20260509052444 53 202 1.0 5.0 0.00 0.00 0.00 83 1006.2
20260509052024 53 202 1.0 5.0 0.00 0.00 0.00 83 1006.2
20260509051944 53 202 2.0 5.0 0.00 0.00 0.00 83 1006.1
20260509051523 54 202 2.0 4.0 0.00 0.00 0.00 83 1006.2
20260509051444 54 202 2.0 4.0 0.00 0.00 0.00 83 1006.3
20260509051004 54 202 2.0 4.0 0.00 0.01 0.00 83 1006.2
20260509050944 54 202 2.0 4.0 0.00 0.01 0.00 83 1006.2
20260509050504 54 202 1.0 3.0 0.00 0.01 0.00 83 1006.3
20260509050444 54 202 1.0 3.0 0.00 0.01 0.00 83 1006.3
20260509050003 54 202 1.0 3.0 0.00 0.01 0.00 82 1006.4
20260509045944 54 202 1.0 3.0 0.00 0.01 0.00 82 1006.4
20260509045503 54 202 1.0 3.0 0.00 0.02 0.00 82 1006.4
20260509045444 54 202 1.0 3.0 0.00 0.02 0.00 82 1006.4
20260509045004 54 202 1.0 4.0 0.00 0.03 0.00 82 1006.3
20260509044944 54 202 1.0 4.0 0.00 0.03 0.00 82 1006.4
20260509044503 54 202 1.0 4.0 0.00 0.04 0.00 82 1006.4
20260509044443 54 202 1.0 4.0 0.00 0.04 0.00 82 1006.4
20260509044003 54 202 1.0 3.0 0.00 0.04 0.00 82 1006.4
20260509043943 54 202 1.0 3.0 0.00 0.04 0.00 81 1006.4
20260509043503 54 202 1.0 3.0 0.00 0.04 0.00 81 1006.5
20260509043443 54 202 1.0 3.0 0.00 0.04 0.00 81 1006.4
20260509043003 54 202 1.0 3.0 0.00 0.04 0.00 81 1006.5
20260509042943 54 202 1.0 3.0 0.00 0.04 0.00 81 1006.4
20260509042503 54 202 1.0 4.0 0.00 0.04 0.00 81 1006.5
20260509042443 55 202 1.0 4.0 0.00 0.04 0.00 81 1006.5
20260509042003 55 201 2.0 4.0 0.00 0.04 0.00 81 1006.5
20260509041943 55 201 2.0 4.0 0.00 0.04 0.00 81 1006.5
20260509041503 55 200 2.0 3.0 0.00 0.04 0.00 80 1006.5
20260509041443 55 200 2.0 4.0 0.00 0.04 0.00 80 1006.6
20260509041003 55 200 2.0 4.0 0.00 0.04 0.00 80 1006.7
20260509040943 55 200 2.0 4.0 0.00 0.04 0.00 80 1006.7
20260509040503 55 200 2.0 4.0 0.00 0.04 0.00 80 1006.7
20260509040443 55 200 2.0 4.0 0.00 0.04 0.00 80 1006.7
20260509040004 55 200 2.0 4.0 0.00 0.04 0.00 80 1006.8
20260509035943 55 200 2.0 4.0 0.00 0.04 0.04 80 1006.8
20260509035503 55 200 2.0 4.0 0.00 0.04 0.04 80 1006.7
20260509035443 55 200 2.0 4.0 0.00 0.04 0.04 80 1006.7
20260509035024 55 200 1.0 4.0 0.00 0.04 0.04 80 1006.7
20260509034943 55 200 1.0 4.0 0.00 0.04 0.04 80 1006.7
20260509034524 55 200 1.0 3.0 0.00 0.04 0.04 80 1006.7
20260509034443 55 200 1.0 3.0 0.00 0.04 0.04 80 1006.8
20260509034003 55 200 1.0 3.0 0.00 0.04 0.04 79 1006.8
20260509033943 55 200 1.0 3.0 0.00 0.04 0.04 79 1006.8
20260509033503 55 200 1.0 3.0 0.00 0.04 0.04 79 1006.7
20260509033442 55 200 2.0 3.0 0.00 0.04 0.04 79 1006.8
20260509033003 56 200 2.0 4.0 0.00 0.04 0.04 79 1006.7
20260509032942 56 200 2.0 4.0 0.00 0.04 0.04 79 1006.7
20260509032503 56 199 2.0 5.0 0.00 0.04 0.04 79 1006.8
20260509032442 56 199 2.0 5.0 0.00 0.04 0.04 79 1006.8
20260509032003 56 199 3.0 5.0 0.00 0.04 0.04 79 1006.8
20260509031942 56 199 3.0 5.0 0.00 0.04 0.04 79 1006.9
20260509031503 56 204 3.0 6.0 0.00 0.04 0.04 79 1006.9
20260509031442 56 206 3.0 6.0 0.00 0.04 0.04 79 1007.0
20260509031004 56 211 3.0 6.0 0.00 0.04 0.04 79 1006.9
20260509030942 56 213 2.0 6.0 0.00 0.04 0.04 79 1007.0
20260509030503 56 215 2.0 5.0 0.00 0.04 0.04 79 1007.0
20260509030442 56 215 3.0 5.0 0.00 0.04 0.04 79 1006.9
20260509030003 56 216 3.0 8.0 0.00 0.04 0.04 79 1007.0
20260509025942 56 215 3.0 8.0 0.00 0.04 0.04 79 1007.0
20260509025503 56 213 3.0 8.0 0.00 0.04 0.04 79 1007.0
20260509025442 56 212 3.0 8.0 0.00 0.04 0.04 79 1007.0
20260509025003 56 210 4.0 8.0 0.00 0.04 0.04 79 1007.0
20260509024942 56 211 4.0 8.0 0.00 0.04 0.04 79 1007.0
20260509024524 56 208 4.0 8.0 0.00 0.04 0.04 79 1007.1
20260509024442 56 208 4.0 8.0 0.00 0.04 0.04 79 1007.1
20260509024024 56 207 4.0 8.0 0.00 0.04 0.04 79 1007.2
20260509023942 56 205 4.0 8.0 0.00 0.04 0.04 79 1007.2
20260509023503 56 198 3.0 8.0 0.00 0.04 0.04 79 1007.1
20260509023442 56 197 3.0 8.0 0.00 0.04 0.04 79 1007.1
20260509023024 56 195 3.0 7.0 0.00 0.04 0.04 79 1007.1
20260509022942 56 196 3.0 7.0 0.00 0.04 0.04 79 1007.0
20260509022503 56 203 3.0 7.0 0.00 0.04 0.04 79 1007.0
20260509022441 56 204 3.0 7.0 0.00 0.04 0.04 79 1007.0
20260509022003 56 200 4.0 9.0 0.00 0.04 0.04 79 1007.0
20260509021941 56 200 4.0 9.0 0.00 0.04 0.04 78 1007.0
20260509021504 56 202 4.0 9.0 0.00 0.04 0.04 78 1007.0
20260509021441 56 204 4.0 9.0 0.00 0.04 0.04 78 1007.0
20260509021024 56 201 5.0 10.0 0.00 0.04 0.04 78 1006.9
20260509020941 56 202 5.0 10.0 0.00 0.04 0.04 78 1006.9
20260509020503 56 200 5.0 10.0 0.00 0.04 0.04 78 1006.8
20260509020441 56 198 5.0 10.0 0.00 0.04 0.04 78 1006.8
20260509020004 56 199 4.0 10.0 0.00 0.04 0.04 78 1006.8
20260509015941 56 197 4.0 9.0 0.00 0.04 0.04 78 1006.7
20260509015503 56 195 4.0 8.0 0.00 0.04 0.04 78 1006.7
20260509015441 56 192 3.0 8.0 0.00 0.04 0.04 78 1006.7
20260509015003 56 196 4.0 8.0 0.00 0.04 0.04 77 1006.7
20260509014941 57 198 3.0 8.0 0.00 0.04 0.04 77 1006.6
20260509014525 57 195 4.0 8.0 0.00 0.04 0.04 77 1006.5
20260509014441 57 191 4.0 8.0 0.00 0.04 0.04 76 1006.5
20260509014004 57 184 4.0 8.0 0.00 0.04 0.04 76 1006.4
20260509013941 57 178 3.0 8.0 0.00 0.04 0.04 76 1006.4
20260509013503 57 183 3.0 6.0 0.00 0.04 0.04 76 1006.4
20260509013441 57 188 3.0 6.0 0.00 0.04 0.04 75 1006.4
20260509013024 57 181 3.0 7.0 0.00 0.04 0.04 75 1006.4
20260509012940 57 185 3.0 7.0 0.00 0.04 0.04 75 1006.4
20260509012504 57 177 3.0 8.0 0.00 0.04 0.04 75 1006.4
20260509012440 57 175 3.0 8.0 0.00 0.04 0.04 74 1006.4
20260509012003 57 170 3.0 8.0 0.00 0.04 0.04 74 1006.3
20260509011940 57 167 3.0 8.0 0.00 0.04 0.04 74 1006.3
20260509011503 57 170 3.0 10.0 0.00 0.04 0.04 74 1006.3
20260509011440 57 173 3.0 10.0 0.00 0.04 0.04 74 1006.3
20260509011003 57 187 3.0 10.0 0.00 0.04 0.04 74 1006.3
20260509010940 57 193 3.0 10.0 0.00 0.04 0.04 74 1006.4
20260509010524 57 198 3.0 7.0 0.00 0.04 0.04 74 1006.4
20260509010440 57 193 3.0 9.0 0.00 0.04 0.04 74 1006.2
20260509010003 58 184 3.0 9.0 0.00 0.04 0.04 73 1006.2
20260509005940 58 181 3.0 9.0 0.00 0.04 0.04 74 1006.3
20260509005503 58 175 3.0 9.0 0.00 0.04 0.04 74 1006.3
20260509005440 58 175 3.0 6.0 0.00 0.04 0.04 74 1006.2
20260509005004 58 174 3.0 7.0 0.00 0.04 0.04 74 1006.3
20260509004940 58 172 3.0 7.0 0.00 0.04 0.04 74 1006.2